Regional Weather Roundup
Issued by NWS

Home | Current Version | Previous Version | Graphics & Text | Print | Product List | Glossary On
Versions: 1 2 3 4 5 6 7 8 9 10 11 12 13 14 15 16 17 18 19 20 21 22 23 24 25 26 27 28 29 30 31 32 33 34 35 36 37 38 39 40 41 42 43 44 45 46 47 48 49 50
000
ASUS44 KMEG 291510
RWRTN
TENNESSEE HOURLY STATE WEATHER ROUNDUP
NATIONAL WEATHER SERVICE MEMPHIS TN
1000 AM CDT SUN MAY 29 2016

TNZ002-004-019-021-049-052-054-088>092-291600-
WEST TENNESSEE

CITY           SKY/WX    TMP DP  RH WIND       PRES   REMARKS
MEMPHIS INTL   CLOUDY    83  71  67 CALM      30.13F
NWS MEMPHIS      N/A     80 N/A N/A MISG        N/A
JACKSON        MOSUNNY   79  69  71 SW6       30.13F
DYERSBURG      MOSUNNY   79  68  69 W7        30.12S
UNION CITY     SUNNY     81  70  69 SW3       30.10F
PARIS          MOSUNNY   79  66  65 CALM      30.13F
LEXINGTON      MOSUNNY   81  70  69 W5        30.13F
$$

TNZ008-025-027-028-033-062-065-066-291600-
NORTH MIDDLE TENNESSEE

CITY           SKY/WX    TMP DP  RH WIND       PRES   REMARKS
NASHVILLE      MOSUNNY   82  66  58 NW6       30.14F
CLARKSVILLE    MOSUNNY   78  69  73 W6        30.13F
SMYRNA         MOSUNNY   81  67  62 VRB3      30.15F
COOKEVILLE     MOSUNNY   79  66  65 CALM      30.16F
CROSSVILLE     CLOUDY    76  61  59 CALM      30.21S
$$

TNZ061-075-076-078-094-096-097-291600-
SOUTH MIDDLE TENNESSEE

CITY           SKY/WX    TMP DP  RH WIND       PRES   REMARKS
FAYETTEVILLE   MOSUNNY   79  66  65 VRB6      30.16F
TULLAHOMA      SUNNY     79  66  65 N5        30.18S
WINCHESTER     SUNNY     81  63  54 W6        30.16F
MCMINNVILLE    SUNNY     81  66  61 CALM      30.16F
COLUMBIA       MOSUNNY   81  79  94 VRB3      30.14S
SHELBYVILLE    SUNNY     82  70  65 NW6       30.16F
$$

TNZ017-018-042-046-047-291600-
NORTHEAST TENNESSEE

CITY           SKY/WX    TMP DP  RH WIND       PRES   REMARKS
TRI CITIES     CLOUDY    72  59  63 CALM      30.18F
$$

TNZ012-013-036-069-073-074-291600-
CENTRAL EAST TENNESSEE

CITY           SKY/WX    TMP DP  RH WIND       PRES   REMARKS
KNOXVILLE      NOT AVBL
OAK RIDGE      PTSUNNY   76  64  66 CALM      30.17R
GATLINBURG     SUNNY     75  63  64 VRB3      30.14S
$$

TNZ083-085-099-291600-
SOUTHEAST TENNESSEE

CITY           SKY/WX    TMP DP  RH WIND       PRES   REMARKS
CHATTANOOGA    CLOUDY    76  64  66 N3        30.15F
$$

SKY/WX REPORTED AS FAIR MEANS FEW OR NO CLOUDS BELOW
12 THOUSAND FEET.





USA.gov is the U.S. government's official web portal to all federal, state and local government web resources and services.